McCarthy, Ontario

6:43 PM EDT on August 19, 2017 (GMT -0400)
Sudbury | | Change Station

Elev 1142 ft 46.62 °N, 80.80 °W | Updated 43 minutes ago

Partly Cloudy
Partly Cloudy
70 °F
Feels Like 70 °F
N
10
Wind Variable Wind from NW

Today
High -- | Low -- °F
--% Chance of Precip.
Yesterday
High -- | Low -- °F
Precip. -- in
Pressure 29.83 in
Visibility 20.0 miles
Clouds Scattered Clouds 4400 ft
Mostly Cloudy 21000 ft
Dew Point 55 °F
Humidity 60%
Rainfall 0.00 in
Snow Depth Not available.
6:25 AM 8:24 PM
Waning Crescent, 4% visible
METAR CYSB 192200Z 32009KT 20SM SCT044 BKN210 21/13 A2982 RMK CU4CC2 SLP101 DENSITY ALT 2200FT
Pressure 29.83 in
Visibility 20.0 miles
Clouds Scattered Clouds 4400 ft
Mostly Cloudy 21000 ft
Dew Point 55 °F
Humidity 60%
Rainfall 0.00 in
Snow Depth Not available.
6:25 AM 8:24 PM
Waning Crescent, 4% visible
METAR CYSB 192200Z 32009KT 20SM SCT044 BKN210 21/13 A2982 RMK CU4CC2 SLP101 DENSITY ALT 2200FT

Get Severe Weather Alerts

Thanks for signing up!

Be on the lookout for a verification email in your inbox.

You'll start receiving the daily forecast at 6 AM.

×

10-Day Weather Forecast

Almanac

Astronomy

Aug. 19, 2017 Rise Set
Actual Time
Civil Twilight
Nautical Twilight
Astronomical Twilight
Moon
Length of Visible Light
Length of Day
Tomorrow will be .
, % of the Moon is Illuminated

Today's Extremes

Country Highs Country Lows

Community

WunderPhotos

Category 6

Welcome to Category 6. This is the collective home for Weather Underground's featured writeups by Dr. Jeff Masters (right), Bob Henson (left), Chris Burt, and other regular contributors.

Nearby

Air Quality

  Air Quality AQ Index Pollutant
Not available.

Snow Depth

Station Depth Elevation

Earthquake Activity

City Distance Mag. Time & Date
Minimum magnitude displayed is 2.5.

Coastal Water Temperatures

Place Temperature

Stations

Nearby Weather Stations

Station Location Temp. Windchill Dew Point Humidity Wind Precip. Elev Updated Type
                   

Watches & Warnings

There are currently no watches in effect.